TimeCDT,TemperatureF,Dew PointF,Humidity,Sea Level PressureIn,VisibilityMPH,Wind Direction,Wind SpeedMPH,Gust SpeedMPH,PrecipitationIn,Events,Conditions,WindDirDegrees,DateUTC
12:15 AM,46.4,35.6,66,29.80,10.0,ENE,15.0,25.3,N/A,,Clear,70,2013-04-16 05:15:00
12:35 AM,44.6,35.6,71,29.80,10.0,East,16.1,26.5,N/A,,Clear,80,2013-04-16 05:35:00
12:55 AM,44.6,33.8,66,29.81,10.0,ENE,16.1,21.9,N/A,,Clear,70,2013-04-16 05:55:00
1:15 AM,42.8,33.8,70,29.82,10.0,ENE,12.7,20.7,N/A,,Clear,60,2013-04-16 06:15:00
1:35 AM,42.8,33.8,70,29.82,10.0,ENE,11.5,-,N/A,,Clear,60,2013-04-16 06:35:00
1:55 AM,41.0,32.0,70,29.84,10.0,NE,9.2,-,N/A,,Clear,50,2013-04-16 06:55:00
2:15 AM,41.0,32.0,70,29.85,10.0,NE,10.4,-,N/A,,Clear,40,2013-04-16 07:15:00
2:35 AM,41.0,32.0,70,29.84,10.0,NE,9.2,-,N/A,,Clear,50,2013-04-16 07:35:00
2:55 AM,41.0,30.2,65,29.86,10.0,NE,5.8,-,N/A,,Clear,40,2013-04-16 07:55:00
3:15 AM,41.0,30.2,65,29.87,10.0,NNE,9.2,-,N/A,,Mostly Cloudy,20,2013-04-16 08:15:00
3:35 AM,41.0,30.2,65,29.87,10.0,NNE,12.7,-,N/A,,Overcast,20,2013-04-16 08:35:00
3:55 AM,41.0,30.2,65,29.87,10.0,NNE,13.8,-,N/A,,Overcast,20,2013-04-16 08:55:00
4:15 AM,41.0,30.2,65,29.88,10.0,North,12.7,-,N/A,,Overcast,10,2013-04-16 09:15:00
4:35 AM,41.0,30.2,65,29.89,10.0,NNE,13.8,-,N/A,,Overcast,20,2013-04-16 09:35:00
4:55 AM,42.8,30.2,61,29.89,10.0,NNE,15.0,-,N/A,,Overcast,20,2013-04-16 09:55:00
5:15 AM,42.8,30.2,61,29.90,10.0,NNE,12.7,19.6,N/A,,Overcast,20,2013-04-16 10:15:00
5:35 AM,42.8,30.2,61,29.91,10.0,NNE,15.0,19.6,N/A,,Overcast,30,2013-04-16 10:35:00
5:55 AM,41.0,30.2,65,29.93,10.0,NNE,15.0,20.7,N/A,,Overcast,20,2013-04-16 10:55:00
6:15 AM,41.0,30.2,65,29.94,10.0,NE,16.1,-,N/A,,Overcast,40,2013-04-16 11:15:00
6:35 AM,41.0,30.2,65,29.94,10.0,NNE,17.3,21.9,N/A,,Overcast,30,2013-04-16 11:35:00
6:55 AM,41.0,30.2,65,29.95,10.0,NNE,19.6,-,N/A,,Overcast,30,2013-04-16 11:55:00
7:15 AM,41.0,30.2,65,29.97,10.0,NNE,11.5,19.6,N/A,,Overcast,30,2013-04-16 12:15:00
7:35 AM,41.0,28.4,61,29.97,10.0,NNE,15.0,19.6,N/A,,Overcast,30,2013-04-16 12:35:00
7:55 AM,41.0,30.2,65,29.98,10.0,NNE,13.8,20.7,N/A,,Overcast,30,2013-04-16 12:55:00
8:15 AM,41.0,30.2,65,29.99,10.0,NNE,15.0,-,N/A,,Overcast,30,2013-04-16 13:15:00
8:35 AM,41.0,30.2,65,30.01,10.0,NE,10.4,-,N/A,,Overcast,40,2013-04-16 13:35:00
8:55 AM,41.0,30.2,65,30.02,10.0,NE,12.7,-,N/A,,Overcast,40,2013-04-16 13:55:00
9:15 AM,41.0,32.0,70,30.01,10.0,NE,13.8,-,N/A,,Overcast,50,2013-04-16 14:15:00
9:35 AM,41.0,30.2,65,30.01,10.0,NNE,11.5,17.3,N/A,,Overcast,30,2013-04-16 14:35:00
9:55 AM,42.8,32.0,66,30.01,10.0,ENE,11.5,-,N/A,,Overcast,60,2013-04-16 14:55:00
10:15 AM,42.8,32.0,66,30.01,10.0,NE,11.5,16.1,N/A,,Overcast,50,2013-04-16 15:15:00
10:35 AM,42.8,30.2,61,30.01,10.0,NNE,12.7,-,N/A,,Overcast,20,2013-04-16 15:35:00
10:55 AM,44.6,32.0,61,30.02,10.0,NNE,10.4,16.1,N/A,,Overcast,20,2013-04-16 15:55:00
11:35 AM,46.4,32.0,57,30.01,10.0,NNE,11.5,16.1,N/A,,Overcast,30,2013-04-16 16:35:00
11:55 AM,46.4,32.0,57,30.01,10.0,NNE,6.9,-,N/A,,Overcast,30,2013-04-16 16:55:00
12:15 PM,50.0,32.0,50,30.01,10.0,ENE,8.1,16.1,N/A,,Overcast,60,2013-04-16 17:15:00
12:35 PM,50.0,32.0,50,30.00,10.0,NNE,10.4,-,N/A,,Overcast,30,2013-04-16 17:35:00
1:15 PM,51.8,32.0,47,29.98,10.0,NE,10.4,16.1,N/A,,Overcast,50,2013-04-16 18:15:00
1:35 PM,51.8,32.0,47,29.96,10.0,ENE,10.4,16.1,N/A,,Mostly Cloudy,60,2013-04-16 18:35:00
1:55 PM,55.4,32.0,41,29.96,10.0,East,9.2,18.4,N/A,,Clear,90,2013-04-16 18:55:00
2:15 PM,53.6,33.8,47,29.96,-9999.0,East,6.9,-,N/A,,Unknown,100,2013-04-16 19:15:00
2:55 PM,55.4,35.6,47,29.93,10.0,East,8.1,17.3,N/A,,Clear,90,2013-04-16 19:55:00
3:15 PM,59.0,35.6,42,29.92,10.0,East,10.4,-,N/A,,Clear,80,2013-04-16 20:15:00
3:55 PM,59.0,35.6,42,29.92,10.0,East,10.4,16.1,N/A,,Clear,80,2013-04-16 20:55:00
4:15 PM,59.0,35.6,42,29.91,10.0,East,9.2,-,N/A,,Clear,100,2013-04-16 21:15:00
4:35 PM,60.8,35.6,39,29.90,10.0,ESE,8.1,-,N/A,,Clear,110,2013-04-16 21:35:00
4:55 PM,60.8,35.6,39,29.89,10.0,East,10.4,-,N/A,,Clear,90,2013-04-16 21:55:00
5:15 PM,62.6,35.6,37,29.87,10.0,East,11.5,16.1,N/A,,Clear,90,2013-04-16 22:15:00
5:35 PM,62.6,35.6,37,29.87,10.0,East,16.1,20.7,N/A,,Clear,90,2013-04-16 22:35:00
5:55 PM,62.6,35.6,37,29.86,10.0,East,8.1,16.1,N/A,,Clear,90,2013-04-16 22:55:00
6:15 PM,62.6,35.6,37,29.87,10.0,East,12.7,16.1,N/A,,Clear,90,2013-04-16 23:15:00
6:35 PM,62.6,35.6,37,29.87,10.0,East,11.5,16.1,N/A,,Clear,90,2013-04-16 23:35:00
6:55 PM,62.6,37.4,39,29.87,10.0,East,11.5,18.4,N/A,,Clear,100,2013-04-16 23:55:00
7:15 PM,60.8,37.4,42,29.86,10.0,ESE,13.8,17.3,N/A,,Clear,110,2013-04-17 00:15:00
7:35 PM,59.0,37.4,45,29.86,10.0,East,13.8,20.7,N/A,,Clear,100,2013-04-17 00:35:00
7:55 PM,59.0,39.2,48,29.85,10.0,East,12.7,-,N/A,,Clear,100,2013-04-17 00:55:00
8:15 PM,57.2,41.0,55,29.86,10.0,East,10.4,-,N/A,,Clear,100,2013-04-17 01:15:00
8:35 PM,55.4,41.0,58,29.87,10.0,East,10.4,-,N/A,,Clear,100,2013-04-17 01:35:00
8:55 PM,53.6,41.0,62,29.87,10.0,East,12.7,-,N/A,,Clear,100,2013-04-17 01:55:00
9:15 PM,51.8,42.8,71,29.88,10.0,East,9.2,-,N/A,,Clear,90,2013-04-17 02:15:00
9:35 PM,51.8,42.8,71,29.87,10.0,East,12.7,-,N/A,,Clear,90,2013-04-17 02:35:00
9:55 PM,51.8,42.8,71,29.87,10.0,East,9.2,-,N/A,,Clear,90,2013-04-17 02:55:00
10:15 PM,50.0,42.8,76,29.87,10.0,East,11.5,-,N/A,,Scattered Clouds,80,2013-04-17 03:15:00
10:35 PM,50.0,41.0,71,29.87,10.0,East,11.5,-,N/A,,Scattered Clouds,80,2013-04-17 03:35:00
10:55 PM,50.0,41.0,71,29.87,10.0,East,11.5,-,N/A,,Mostly Cloudy,80,2013-04-17 03:55:00
11:15 PM,50.0,41.0,71,29.87,10.0,ENE,12.7,-,N/A,,Overcast,60,2013-04-17 04:15:00
11:35 PM,50.0,41.0,71,29.87,10.0,ENE,12.7,-,N/A,,Overcast,70,2013-04-17 04:35:00
11:55 PM,48.2,41.0,76,29.86,10.0,East,13.8,-,N/A,,Overcast,90,2013-04-17 04:55:00